DW4238 Weather Reports


Display with metric or nautical units.
time (UTC)temp
F
wind
direction
speed
MPH
gust
MPH
rain 1hr
in
rain 24hr
in
rain mn
in
humidity
%
barometer
mb
20260503001625 74 10 1.0 3.0 0.00 0.03 0.00 54 1018.2
20260503001035 74 10 3.0 4.0 0.00 0.03 0.00 52 1018.2
20260503000617 74 5 2.0 5.0 0.00 0.03 0.00 53 1018.2
20260503000041 74 24 3.0 6.0 0.00 0.09 0.00 51 1018.2
20260502235644 74 13 4.0 6.0 0.00 0.09 0.00 51 1018.2
20260502235134 74 337 3.0 6.0 0.00 0.09 0.00 51 1018.2
20260502234538 74 18 3.0 6.0 0.00 0.09 0.00 54 1018.1
20260502234043 74 294 3.0 7.0 0.00 0.09 0.00 52 1018.1
20260502233053 74 34 4.0 8.0 0.00 0.09 0.00 51 1018.0
20260502232553 74 16 4.0 9.0 0.00 0.09 0.00 51 1018.1
20260502232103 74 347 5.0 11.0 0.00 0.09 0.00 50 1018.0
20260502231526 74 32 7.0 11.0 0.00 0.09 0.00 51 1018.1
20260502231137 74 355 2.0 9.0 0.00 0.09 0.00 52 1018.1
20260502230616 74 51 4.0 11.0 0.00 0.09 0.00 51 1018.0
20260502230043 74 56 6.0 11.0 0.00 0.16 0.00 50 1018.0
20260502225554 75 42 5.0 11.0 0.00 0.16 0.00 52 1018.0
20260502224542 75 346 3.0 12.0 0.00 0.16 0.00 53 1018.1
20260502224053 74 344 6.0 12.0 0.00 0.16 0.00 51 1018.1
20260502223602 74 333 5.0 10.0 0.00 0.16 0.00 51 1018.1
20260502223027 74 54 5.0 9.0 0.00 0.16 0.00 52 1018.1
20260502222538 74 47 4.0 12.0 0.00 0.16 0.00 52 1018.1
20260502221556 75 65 4.0 12.0 0.00 0.16 0.00 52 1018.2
20260502221047 74 35 5.0 12.0 0.00 0.16 0.00 54 1018.2
20260502220606 74 315 5.0 12.0 0.00 0.16 0.00 51 1018.3
20260502220037 74 336 7.0 12.0 0.00 0.20 0.00 51 1018.2
20260502215548 74 331 8.0 12.0 0.00 0.20 0.00 52 1018.2
20260502214550 74 42 6.0 13.0 0.00 0.20 0.00 53 1018.3
20260502214054 74 92 4.0 11.0 0.00 0.20 0.00 52 1018.4
20260502213120 74 20 5.0 11.0 0.00 0.20 0.00 53 1018.4
20260502212602 74 19 5.0 11.0 0.00 0.20 0.00 53 1018.5
20260502212120 74 12 4.0 12.0 0.00 0.20 0.00 53 1018.6
20260502211033 73 333 4.0 12.0 0.00 0.20 0.00 56 1018.7
20260502210054 73 38 5.0 12.0 0.00 0.20 0.00 57 1018.8
20260502205604 73 60 8.0 12.0 0.00 0.31 0.00 53 1019.0
20260502204605 73 360 4.0 11.0 0.00 0.31 0.00 55 1019.0
20260502204118 73 46 7.0 13.0 0.00 0.31 0.00 54 1019.0
20260502203559 73 49 7.0 13.0 0.00 0.31 0.00 55 1019.1
20260502203029 73 360 7.0 13.0 0.00 0.31 0.00 56 1019.1
20260502202541 73 33 5.0 13.0 0.00 0.31 0.00 55 1019.1
20260502202123 73 329 7.0 12.0 0.00 0.31 0.00 56 1019.2
20260502201550 73 340 6.0 11.0 0.00 0.31 0.00 58 1019.2
20260502201053 73 32 4.0 14.0 0.00 0.31 0.00 58 1019.3
20260502200122 72 32 6.0 13.0 0.00 0.31 0.00 59 1019.4
20260502195625 72 5 7.0 11.0 0.00 0.38 0.00 56 1019.4
20260502194634 72 9 5.0 12.0 0.00 0.38 0.00 59 1019.4
20260502194115 71 5 6.0 10.0 0.00 0.38 0.00 59 1019.4
20260502193530 71 329 5.0 11.0 0.00 0.38 0.00 61 1019.5
20260502193032 71 38 6.0 12.0 0.00 0.38 0.00 60 1019.6
20260502192545 71 37 6.0 13.0 0.00 0.38 0.00 61 1019.6
20260502191603 71 24 5.0 13.0 0.00 0.38 0.00 63 1019.6
20260502191113 70 314 5.0 13.0 0.00 0.38 0.00 63 1019.7
20260502190617 71 309 8.0 13.0 0.00 0.38 0.00 61 1019.8
20260502190044 71 5 7.0 10.0 0.00 0.40 0.00 64 1019.8
20260502185549 70 329 4.0 11.0 0.00 0.40 0.00 61 1019.9
20260502185058 70 5 5.0 11.0 0.00 0.40 0.00 64 1020.1
20260502184531 70 355 8.0 12.0 0.00 0.40 0.00 63 1020.1
20260502184035 71 349 8.0 12.0 0.00 0.40 0.00 62 1020.1
20260502183034 70 322 4.0 12.0 0.00 0.40 0.00 64 1020.4
20260502182546 70 346 6.0 12.0 0.00 0.40 0.00 62 1020.4
20260502181609 69 16 3.0 13.0 0.00 0.40 0.00 64 1020.5
20260502181120 69 355 9.0 13.0 0.00 0.40 0.00 61 1020.5
20260502180623 69 303 8.0 12.0 0.00 0.40 0.00 63 1020.7
20260502170124 67 313 5.0 13.0 0.00 0.41 0.00 71 1021.1
20260502164035 66 30 6.0 12.0 0.00 0.45 0.00 72 1021.2
20260502163055 66 333 5.0 12.0 0.00 0.45 0.00 75 1021.3
20260502162608 65 40 7.0 12.0 0.00 0.45 0.00 73 1021.3
20260502161548 65 360 6.0 10.0 0.00 0.45 0.00 75 1021.2
20260502161056 65 327 4.0 11.0 0.00 0.45 0.00 76 1021.2
20260502152138 62 340 5.0 10.0 0.00 0.53 0.00 80 1021.0
20260502151548 62 23 4.0 10.0 0.00 0.53 0.00 80 1021.0
20260502151101 61 340 6.0 10.0 0.00 0.53 0.00 81 1021.1
20260502150600 61 19 6.0 11.0 0.00 0.53 0.00 80 1021.0
20260502130528 52 319 4.0 9.0 0.00 0.67 0.00 93 1019.8
20260502130138 52 319 5.0 8.0 0.00 0.67 0.00 93 1019.8
20260502123623 51 328 4.0 5.0 0.00 0.84 0.00 93 1019.4
20260502123054 51 311 3.0 5.0 0.00 0.84 0.00 93 1019.1
20260502122557 50 96 3.0 4.0 0.00 0.84 0.00 93 1019.1
20260502121617 50 324 3.0 4.0 0.00 0.84 0.00 93 1018.9
20260502121105 50 324 3.0 5.0 0.00 0.84 0.00 93 1018.8
20260502120616 50 324 3.0 5.0 0.00 0.84 0.00 93 1018.8
20260502115642 50 325 3.0 5.0 0.00 1.08 0.00 93 1018.7
20260502115123 50 298 3.0 5.0 0.00 1.08 0.00 93 1018.7
20260502114548 50 324 3.0 4.0 0.00 1.08 0.00 93 1018.6
20260502114102 50 322 3.0 5.0 0.00 1.08 0.00 93 1018.6
20260502113125 50 324 3.0 4.0 0.00 1.08 0.00 93 1018.5
20260502112604 51 325 3.0 5.0 0.00 1.08 0.00 93 1018.4
20260502112116 51 326 3.0 5.0 0.00 1.08 0.00 93 1018.4
20260502111542 51 327 3.0 5.0 0.00 1.08 0.00 93 1018.2
20260502111048 51 327 3.0 6.0 0.00 1.08 0.00 93 1018.1
20260502110056 51 346 4.0 5.0 0.00 1.08 0.00 93 1017.9
20260502105559 51 346 3.0 5.0 0.00 1.18 0.00 93 1017.9
20260502104620 51 9 2.0 4.0 0.00 1.18 0.00 93 1017.6
20260502104031 51 5 2.0 5.0 0.00 1.18 0.00 93 1017.6
20260502103534 51 355 2.0 5.0 0.00 1.18 0.00 93 1017.5
20260502103123 51 355 3.0 6.0 0.00 1.18 0.00 93 1017.6
20260502102533 51 360 2.0 6.0 0.00 1.18 0.00 93 1017.5
20260502102139 51 15 2.0 6.0 0.00 1.18 0.00 93 1017.5
20260502101543 51 9 3.0 6.0 0.00 1.18 0.00 93 1017.5
20260502101047 51 350 2.0 6.0 0.00 1.18 0.00 93 1017.5
20260502100114 51 355 4.0 6.0 0.00 1.18 0.00 93 1017.4
20260502091049 51 327 4.0 6.0 0.00 1.30 0.00 93 1017.0
20260502071534 52 26 2.0 6.0 0.00 1.51 0.00 92 1016.3
20260502071037 52 15 2.0 6.0 0.00 1.51 0.00 92 1016.2
20260502070645 52 350 4.0 6.0 0.00 1.51 0.00 92 1016.3
20260502070053 52 348 3.0 8.0 0.00 1.53 0.00 92 1016.4
20260502065602 52 360 4.0 5.0 0.00 1.53 0.00 91 1016.3
20260502065033 52 17 2.0 6.0 0.00 1.53 0.00 91 1016.3
20260502064544 53 25 2.0 6.0 0.00 1.53 0.00 91 1016.2
20260502064034 53 30 3.0 6.0 0.00 1.53 0.00 91 1016.3
20260502063545 53 30 3.0 5.0 0.00 1.53 0.00 92 1016.3
20260502063038 53 5 3.0 5.0 0.00 1.53 0.00 92 1016.3
20260502062527 53 351 3.0 6.0 0.00 1.53 0.00 92 1016.5
20260502062056 53 5 3.0 6.0 0.00 1.53 0.00 92 1016.5
20260502061527 53 30 3.0 8.0 0.00 1.53 0.00 92 1016.5
20260502061037 53 34 2.0 9.0 0.00 1.53 0.00 92 1016.5
20260502060553 53 11 5.0 9.0 0.00 1.53 0.00 92 1016.5
20260502060042 53 36 5.0 11.0 0.00 1.64 0.00 92 1016.5
20260502055532 53 31 5.0 11.0 0.00 1.64 0.00 92 1016.5
20260502055042 53 48 6.0 11.0 0.00 1.64 0.00 92 1016.5
20260502054601 53 26 5.0 10.0 0.00 1.64 0.00 92 1016.4
20260502054111 53 53 4.0 10.0 0.00 1.64 0.00 92 1016.4
20260502053534 52 39 3.0 10.0 0.00 1.64 0.00 92 1016.4
20260502053031 52 55 6.0 10.0 0.00 1.64 0.00 92 1016.4
20260502052609 53 52 5.0 9.0 0.00 1.64 0.00 92 1016.4
20260502052030 52 17 4.0 10.0 0.00 1.64 0.00 92 1016.4
20260502051550 52 36 5.0 10.0 0.00 1.64 0.00 92 1016.4
20260502051032 52 32 5.0 11.0 0.00 1.64 0.00 92 1016.4
20260502050608 52 28 6.0 11.0 0.00 1.64 0.00 92 1016.4
20260502050128 52 61 5.0 10.0 0.00 1.64 0.00 92 1016.4
20260502045530 52 32 6.0 13.0 0.00 1.73 1.64 92 1016.4
20260502044558 52 78 6.0 15.0 0.00 1.73 1.64 92 1016.1
20260502044103 53 39 8.0 13.0 0.00 1.73 1.64 92 1016.1
20260502043612 53 47 7.0 12.0 0.00 1.73 1.64 92 1016.1
20260502043042 53 20 5.0 13.0 0.00 1.73 1.64 92 1016.1
20260502042551 53 14 9.0 14.0 0.00 1.73 1.64 92 1016.1
20260502041609 53 28 7.0 16.0 0.00 1.73 1.64 92 1016.0
20260502041112 53 349 9.0 17.0 0.00 1.73 1.64 92 1016.0
20260502040623 53 35 11.0 17.0 0.00 1.73 1.64 92 1015.9
20260502040051 54 32 10.0 16.0 0.00 1.75 1.64 92 1015.9
20260502035533 54 19 8.0 11.0 0.00 1.75 1.64 93 1016.0
20260502034602 54 355 7.0 14.0 0.00 1.75 1.64 93 1016.0
20260502034106 54 14 7.0 12.0 0.00 1.75 1.64 93 1016.0
20260502033621 54 23 4.0 12.0 0.00 1.75 1.64 93 1016.1
20260502033039 54 31 6.0 12.0 0.00 1.75 1.64 93 1016.0
20260502032551 54 331 8.0 12.0 0.00 1.75 1.64 93 1016.0
20260502032103 55 15 6.0 12.0 0.00 1.75 1.64 93 1016.0
20260502031643 55 355 6.0 12.0 0.00 1.75 1.64 93 1015.9
20260502031135 55 32 7.0 11.0 0.00 1.75 1.64 93 1015.8
20260502030617 55 9 6.0 11.0 0.00 1.75 1.64 93 1015.6
20260502030044 55 345 5.0 14.0 0.00 1.75 1.64 93 1015.4
20260502025535 55 35 8.0 14.0 0.00 1.75 1.64 93 1015.3
20260502024555 55 28 9.0 15.0 0.00 1.75 1.64 93 1015.3
20260502024037 55 26 8.0 14.0 0.00 1.75 1.64 93 1015.2
20260502023111 55 35 5.0 14.0 0.00 1.75 1.64 93 1015.3
20260502022614 55 32 8.0 14.0 0.00 1.75 1.64 93 1015.2
20260502022127 55 355 6.0 15.0 0.00 1.75 1.64 93 1015.1
20260502021545 55 348 8.0 15.0 0.00 1.75 1.64 93 1014.9
20260502021057 55 34 6.0 11.0 0.00 1.75 1.64 93 1014.8
20260502020119 55 350 4.0 10.0 0.00 1.75 1.64 93 1014.4
20260502015608 55 22 5.0 14.0 0.00 1.75 1.64 93 1014.4
20260502014607 55 26 8.0 15.0 0.00 1.75 1.64 93 1013.6
20260502014123 55 33 7.0 15.0 0.00 1.75 1.64 93 1013.5
20260502013626 55 32 8.0 15.0 0.01 1.75 1.64 93 1013.2
20260502013053 55 26 8.0 15.0 0.01 1.75 1.64 93 1013.0
20260502012558 55 34 9.0 14.0 0.01 1.75 1.64 93 1013.2
20260502011605 55 57 8.0 13.0 0.02 1.75 1.64 94 1013.2
20260502011047 56 57 8.0 15.0 0.03 1.75 1.64 94 1013.4
20260502010047 56 51 11.0 16.0 0.03 1.75 1.64 93 1013.7
20260502005556 56 360 9.0 14.0 0.03 1.75 1.64 93 1013.9
20260502005138 56 355 6.0 12.0 0.04 1.75 1.64 93 1013.7
20260502004545 56 24 7.0 15.0 0.05 1.75 1.64 93 1013.3
20260502004056 56 10 11.0 15.0 0.05 1.75 1.64 93 1013.1
20260502003049 56 58 7.0 14.0 0.05 1.74 1.63 93 1013.5
20260502002601 56 32 8.0 15.0 0.05 1.74 1.63 93 1013.5